星链-4475 (STARLINK-4475 )

导读

STARLINK-4475是美国SpaceX公司星链星座的卫星,于北京时间2022年8月19日发射入轨,运行于近地轨道。它是星链全球宽带互联网组网的组成部分,依托低轨布局,可降低网络传输延迟,为偏远欠发达地区提供高速互联网接入,助力填补全球数字鸿沟,是SpaceX构建大规模卫星星座的重要单元。

Basic Information
目录编号:
53545
目录名称:
STARLINK-4475
国际标识:
2022-101U
轨道中心:
EARTH
卫星名称:
星链-4475
卫星全名:
星链-4475 (STARLINK-4475 )
卫星状态:
在轨 (已飞行1477 天)
发射日期:
2022-08-19 UTC
国别 :
美国 (US)
星等 :
--
Orbit Information
数据来源 国际轨道数据
星历时间: 2026-09-04T04:00:02+0800
8小时前
查看轨道信息
半长轴: 6840.83km
偏心率: 0.0001138
轨道倾角: 53.159°
近地点辐角 71.035°
升交点赤经 331.584°
平近点角 176.784°
近地点: 461.914km
远地点: 463.472km
周期: 93.848分钟
每日圈数: 15.344037
Detailed Information
固有亮度:
5
最大亮度:
2.5
卫星平台:
Starlink v1.5
覆盖范围:
全球
运营商:
太空探索技术公司
运营商所在国:
美国
制造商(研发单位):
太空探索技术公司
制造商所在国:
美国
使用方式:
暂无
Satellite Introduction
星链(Starlink)计划是由太空探索技术公司(SpaceX)提出的一个巨型低轨卫星互联网星座项目,计划在2019年至2024年间在太空搭建由约1.2万颗卫星组成的“星链”网络,其中1584颗将部署在地球上空550千米处的近地轨道,并从2020年开始工作。该卫星仍在工作。
2D Orbit Map
3D Orbit Map
Orbit Altitude Analysis Chart
Orbit Inclination Analysis Chart
Orbit Comprehensive Analysis Chart
View Comprehensive Chart
Conjunction Data List
Event ID Objects TCA Miss Dist (km) Collision Risk Probability Collision Risk Index (CRI) Action
CDM_260903-122205-354505-922021
2026-09-03T
12:22:49+0000
0.583 km
远距离
8.976991E-5 中风险 0.74
CDM_260903-065405-354505-922021
2026-09-03T
06:54:33+0000
1.094 km
极远距离
1.198495E-5 中风险 0.57
CDM_260903-082005-354506-159321
2026-09-03T
08:20:37+0000
1.202 km
极远距离
3.892709E-6 低风险 0.47
CDM_260901-102905-354505-718921
OBJECT Z (57189)
2026-09-01T
10:29:17+0000
1.665 km
极远距离
2.82953E-6 低风险 0.44
CDM_260903-073305-354506-159321
2026-09-03T
07:33:43+0000
2.487 km
极远距离
6.051495E-7 极低风险 0.31